Location: Newark
(13.8625°N, 100.5144°E)
Time: 03:14:24
(UTC+00:00)

Hubble Space Telescope - Pass Details

Date: 16 May 2021
Orbit: 535 x 539 km, 28.5° (Epoch: 21 June)

Event Time Altitude Azimuth Distance (km) Brightness Sun altitude
Exits shadow 21:41:11 34° 245° (WSW) 892 1.3 -16.4°
Maximum altitude 21:42:55 88° 331° (NNW) 534 0.7 -16.1°
Drops below altitude 10° 21:47:02 10° 63° (ENE) 1,772 4.8 -15.2°
Sets 21:49:17 0° 63° (ENE) 2,662 6.3 -14.7°
